Miscellaneous Local Product
Issued by NWS Hastings, NE

Home | Current Version | Previous Version | Text Only | Print | Product List | Glossary On
Versions: 1 2 3 4 5 6 7 8 9 10 11 12 13 14 15 16 17 18 19 20 21 22 23 24 25 26 27 28 29 30 31 32 33 34 35 36 37 38 39 40 41 42 43 44 45 46 47 48 49 50
000
AXUS43 KGID 221302
MISGRI

GID CWA HOURLY WEATHER ROUNDUP
NATIONAL WEATHER SERVICE HASTINGS NE
800 AM CDT WED OCT 22 2014

NOTE: "FAIR" INDICATES FEW OR NO CLOUDS BELOW 12,000 FEET WITH NO
SIGNIFICANT WEATHER AND/OR OBSTRUCTIONS TO VISIBILITY.

...SOUTH CENTRAL NEBRASKA...

CITY           SKY/WX    TMP DP  RH WIND       PRES   REMARKS
GRAND ISLAND   MOCLDY    57  53  86 S14G23    30.00S
HASTINGS       PTCLDY    55  52  89 S12       30.00S FOG
KEARNEY        MOCLDY    55  52  88 SE14      29.99S
ORD            CLOUDY    55  53  93 SE7       29.95S FOG
YORK           CLEAR     54  48  82 S15       30.03S
AURORA         CLEAR     54  52  92 S12       30.01S FOG
LEXINGTON      MOCLDY    57  52  82 S12       29.95S
HOLDREGE       PTCLDY    56  51  85 S14       29.97S
HEBRON         CLEAR     55  50  83 S10       30.05S

...NEBRASKA PANHANDLE...

CITY           SKY/WX    TMP DP  RH WIND       PRES   REMARKS
CHADRON        CLOUDY    52  37  56 W12       29.97R
ALLIANCE       CLOUDY    47  46  97 SW8       29.97R
SCOTTSBLUFF    MOCLDY    48  45  89 NW5       30.00R
SIDNEY         CLOUDY    50  46  86 NW5       30.01R

...WESTERN AND NORTH CENTRAL NEBRASKA...

CITY           SKY/WX    TMP DP  RH WIND       PRES   REMARKS
VALENTINE      CLOUDY    60  49  66 W9        29.90R
AINSWORTH      CLOUDY    56  52  84 S5        29.90S
ONEILL         CLOUDY    57  55  90 S13       29.93S
BROKEN BOW     CLOUDY    56  52  86 SE8       29.94S
IMPERIAL       CLOUDY    54  46  74 N7        29.96R
NORTH PLATTE   CLOUDY    56  50  80 W5        29.96R
MCCOOK         MOCLDY    57  49  74 SW6       29.96R

...EASTERN NEBRASKA...

CITY           SKY/WX    TMP DP  RH WIND       PRES   REMARKS
NORFOLK        CLEAR     54  45  71 S15       30.00F
SO SIOUX CITY  CLEAR     53  44  71 S12       30.05F
TEKAMAH        CLEAR     53  44  71 SE9       30.08S
COLUMBUS       CLEAR     54  43  66 SE13      30.04S
ALBION         PTCLDY    52  47  83 SE9       30.00S
OMAHA EPPLEY   PTCLDY    54  44  69 SE16      30.11S
MILLARD        PTCLDY    53  46  76 N9        30.10S
LINCOLN        CLEAR     53  44  71 S14       30.08S
NEBRASKA CITY  CLEAR     52  42  69 S10       30.12S
BEATRICE       CLEAR     54  45  72 SE10      30.08S
FALLS CITY     PTCLDY    51  46  83 SE9       30.13S

...NORTHERN KANSAS...

CITY           SKY/WX    TMP DP  RH WIND       PRES   REMARKS
GOODLAND       CLOUDY    50  47  89 S6        29.98S
HILL CITY      MOCLDY    58  50  75 S6        29.99F
NORTON         SUNNY     55  46  71 SE8       29.95S
PHILLIPSBURG   CLEAR     59  54  82 S9        29.99S
SMITH CENTER   CLEAR     54  52  94 SE8       30.02R
BELOIT         CLEAR     55  55 100 E9        30.03S
HAYS           PTCLDY    55  46  71 SE5       30.02S
RUSSELL        CLEAR     56  52  86 S12       30.02S
CONCORDIA      CLEAR     55  55 100 SE13      30.05F
SALINA         CLEAR     58  55  90 SE10      30.07S
TOPEKA         PTCLDY    53  48  83 E6        30.15S



USA.gov is the U.S. government's official web portal to all federal, state and local government web resources and services.